• In Portugal
  • List of Countries
  • For 7 days
  • Water Temperature
  • Satellite Maps
  • Weather Map
  • Weather Widgets
  • user-avatar
    Login

    Hourly Weather Rundu

    Today, 21 February, Wednesday

    Time Temperature Precipitation Wind Pressure Humidity
    00:00 +24°C° 0.3 mm 2 mps 665 mmHg 69%
    01:00 +23°C° 0.3 mm 2 mps 665 mmHg 76%
    02:00 +23°C° 0.4 mm 2 mps 665 mmHg 80%
    03:00 +21°C° 0.4 mm 2 mps 665 mmHg 84%
    04:00 +22°C° 0.4 mm 1 mps 665 mmHg 88%
    05:00 +22°C° 0.1 mm 1 mps 665 mmHg 86%
    06:00 +22°C° 0.1 mm 1 mps 665 mmHg 84%
    07:00 +23°C° 0.1 mm 1 mps 665 mmHg 82%
    08:00 +24°C° 0.1 mm 1 mps 666 mmHg 77%
    09:00 +25°C° 0.1 mm 1 mps 666 mmHg 71%
    10:00 +27°C° 0.1 mm 1 mps 666 mmHg 66%
    11:00 +28°C° 0 mm 1 mps 666 mmHg 60%
    12:00 +30°C° 0 mm 2 mps 666 mmHg 53%
    13:00 +31°C° 0 mm 2 mps 665 mmHg 47%
    14:00 +31°C° 0 mm 2 mps 665 mmHg 47%
    15:00 +31°C° 0 mm 1 mps 664 mmHg 47%
    16:00 +31°C° 0 mm 1 mps 664 mmHg 47%
    17:00 +29°C° 0.1 mm 1 mps 664 mmHg 52%
    18:00 +28°C° 0.1 mm 2 mps 664 mmHg 57%
    19:00 +27°C° 0.1 mm 2 mps 664 mmHg 61%
    20:00 +25°C° 0.8 mm 2 mps 664 mmHg 70%
    21:00 +24°C° 0.8 mm 2 mps 664 mmHg 78%
    22:00 +23°C° 0.8 mm 2 mps 664 mmHg 86%
    23:00 +21°C° 0.3 mm 2 mps 664 mmHg 88%

    Tomorrow, 22 February, Thursday

    Time Temperature Precipitation Wind Pressure Humidity
    00:00 +22°C° 0.3 mm 1 mps 664 mmHg 89%
    01:00 +22°C° 0.3 mm 1 mps 663 mmHg 91%
    02:00 +22°C° 0.2 mm 1 mps 663 mmHg 91%
    03:00 +22°C° 0.2 mm 1 mps 663 mmHg 92%
    04:00 +22°C° 0.2 mm 1 mps 663 mmHg 92%
    05:00 +22°C° 0.4 mm 1 mps 663 mmHg 91%
    06:00 +22°C° 0.4 mm 1 mps 663 mmHg 89%
    07:00 +23°C° 0.4 mm 1 mps 664 mmHg 88%
    08:00 +24°C° 1 mm 1 mps 664 mmHg 80%
    09:00 +26°C° 1 mm 1 mps 665 mmHg 72%
    10:00 +28°C° 1 mm 1 mps 665 mmHg 64%
    11:00 +29°C° 0.7 mm 1 mps 664 mmHg 61%
    12:00 +29°C° 0.7 mm 1 mps 664 mmHg 57%
    13:00 +30°C° 0.7 mm 1 mps 663 mmHg 54%
    14:00 +30°C° 0.2 mm 1 mps 663 mmHg 57%
    15:00 +29°C° 0.2 mm 1 mps 662 mmHg 61%
    16:00 +28°C° 0.2 mm 1 mps 662 mmHg 64%
    17:00 +27°C° 0.7 mm 1 mps 662 mmHg 70%
    18:00 +25°C° 0.7 mm 1 mps 662 mmHg 76%
    19:00 +24°C° 0.7 mm 1 mps 662 mmHg 83%
    20:00 +24°C° 1.4 mm 1 mps 663 mmHg 85%
    21:00 +23°C° 1.4 mm 1 mps 663 mmHg 87%
    22:00 +23°C° 1.4 mm 2 mps 664 mmHg 89%
    23:00 +23°C° 0.5 mm 1 mps 663 mmHg 91%

    Day after tomorrow, 23 February, Friday

    Time Temperature Precipitation Wind Pressure Humidity
    00:00 +22°C° 0.5 mm 1 mps 663 mmHg 92%
    01:00 +22°C° 0.5 mm 1 mps 662 mmHg 94%
    02:00 +22°C° 0.5 mm 1 mps 662 mmHg 95%
    03:00 +22°C° 0.5 mm 1 mps 662 mmHg 95%
    04:00 +21°C° 0.5 mm 1 mps 662 mmHg 96%
    05:00 +22°C° 0.2 mm 1 mps 662 mmHg 94%
    06:00 +22°C° 0.2 mm 1 mps 663 mmHg 93%
    07:00 +23°C° 0.2 mm 1 mps 663 mmHg 91%
    08:00 +24°C° 0.7 mm 1 mps 664 mmHg 83%
    09:00 +26°C° 0.7 mm 1 mps 664 mmHg 76%
    10:00 +27°C° 0.7 mm 1 mps 664 mmHg 68%
    11:00 +28°C° 1.2 mm 1 mps 664 mmHg 66%
    12:00 +29°C° 1.2 mm 2 mps 663 mmHg 63%
    13:00 +29°C° 1.2 mm 2 mps 663 mmHg 60%
    14:00 +29°C° 1.3 mm 2 mps 662 mmHg 63%
    15:00 +28°C° 1.3 mm 2 mps 662 mmHg 65%
    16:00 +28°C° 1.3 mm 2 mps 661 mmHg 68%
    17:00 +27°C° 1.6 mm 2 mps 661 mmHg 74%
    18:00 +25°C° 1.6 mm 2 mps 662 mmHg 80%
    19:00 +24°C° 1.6 mm 2 mps 662 mmHg 86%
    20:00 +23°C° 0.4 mm 2 mps 662 mmHg 88%
    21:00 +23°C° 0.4 mm 2 mps 663 mmHg 90%
    22:00 +23°C° 0.4 mm 2 mps 663 mmHg 92%
    23:00 +22°C° 0 mm 1 mps 663 mmHg 92%

    24 February, Saturday

    Time Temperature Precipitation Wind Pressure Humidity
    00:00 +22°C° 0 mm 1 mps 662 mmHg 93%
    01:00 +20°C° 0 mm 0 mps 662 mmHg 94%
    02:00 +22°C° 0.2 mm 1 mps 662 mmHg 93%
    03:00 +22°C° 0.2 mm 1 mps 662 mmHg 92%
    04:00 +22°C° 0.2 mm 1 mps 662 mmHg 92%
    05:00 +22°C° 0 mm 1 mps 662 mmHg 90%
    06:00 +22°C° 0 mm 1 mps 663 mmHg 89%
    07:00 +23°C° 0 mm 1 mps 664 mmHg 87%
    08:00 +25°C° 0 mm 1 mps 664 mmHg 78%
    09:00 +26°C° 0 mm 2 mps 665 mmHg 69%
    10:00 +28°C° 0 mm 2 mps 665 mmHg 60%
    11:00 +30°C° 0 mm 3 mps 665 mmHg 53%
    12:00 +33°C° 0 mm 3 mps 664 mmHg 45%
    13:00 +34°C° 0 mm 3 mps 664 mmHg 37%
    14:00 +34°C° 0 mm 3 mps 663 mmHg 38%
    15:00 +33°C° 0 mm 3 mps 663 mmHg 40%
    16:00 +32°C° 0 mm 2 mps 663 mmHg 42%
    17:00 +30°C° 0 mm 2 mps 663 mmHg 45%
    18:00 +29°C° 0 mm 1 mps 663 mmHg 49%
    19:00 +28°C° 0 mm 1 mps 663 mmHg 53%
    20:00 +27°C° 0 mm 1 mps 663 mmHg 57%
    21:00 +26°C° 0 mm 1 mps 664 mmHg 61%
    22:00 +25°C° 0 mm 1 mps 664 mmHg 66%
    23:00 +25°C° 0.2 mm 1 mps 664 mmHg 69%

    25 February, Sunday

    Time Temperature Precipitation Wind Pressure Humidity
    00:00 +24°C° 0.2 mm 1 mps 663 mmHg 72%
    01:00 +24°C° 0.2 mm 1 mps 663 mmHg 75%
    02:00 +23°C° 0.1 mm 1 mps 663 mmHg 76%
    03:00 +23°C° 0.1 mm 1 mps 663 mmHg 77%
    04:00 +23°C° 0.1 mm 1 mps 663 mmHg 77%
    05:00 +23°C° 0 mm 2 mps 663 mmHg 74%
    06:00 +23°C° 0 mm 2 mps 664 mmHg 70%
    07:00 +23°C° 0 mm 2 mps 664 mmHg 67%
    08:00 +26°C° 0 mm 2 mps 665 mmHg 56%
    09:00 +28°C° 0 mm 3 mps 665 mmHg 45%
    10:00 +31°C° 0 mm 3 mps 666 mmHg 34%
    11:00 +32°C° 0 mm 2 mps 666 mmHg 32%
    12:00 +35°C° 0 mm 2 mps 665 mmHg 29%
    13:00 +37°C° 0 mm 2 mps 665 mmHg 27%
    14:00 +36°C° 0 mm 2 mps 664 mmHg 30%
    15:00 +35°C° 0 mm 2 mps 664 mmHg 33%
    16:00 +33°C° 0 mm 1 mps 663 mmHg 36%
    17:00 +31°C° 0 mm 1 mps 663 mmHg 40%
    18:00 +29°C° 0 mm 1 mps 663 mmHg 43%
    19:00 +28°C° 0 mm 1 mps 663 mmHg 47%
    20:00 +27°C° 0 mm 1 mps 664 mmHg 49%
    21:00 +27°C° 0 mm 2 mps 664 mmHg 51%
    22:00 +26°C° 0 mm 2 mps 664 mmHg 52%
    23:00 +25°C° 0.9 mm 1 mps 664 mmHg 58%

    26 February, Monday

    Time Temperature Precipitation Wind Pressure Humidity
    00:00 +24°C° 0.9 mm 1 mps 664 mmHg 64%
    01:00 +23°C° 0.9 mm 1 mps 663 mmHg 69%
    02:00 +22°C° 0 mm 1 mps 663 mmHg 69%
    03:00 +22°C° 0 mm 1 mps 663 mmHg 68%
    04:00 +21°C° 0 mm 1 mps 663 mmHg 67%
    05:00 +21°C° 0.1 mm 1 mps 664 mmHg 64%
    06:00 +22°C° 0.1 mm 1 mps 664 mmHg 61%
    07:00 +22°C° 0.1 mm 1 mps 665 mmHg 58%
    08:00 +25°C° 0.1 mm 2 mps 665 mmHg 51%
    09:00 +27°C° 0.1 mm 2 mps 666 mmHg 44%
    10:00 +30°C° 0.1 mm 2 mps 667 mmHg 36%
    11:00 +32°C° 0 mm 2 mps 667 mmHg 34%
    12:00 +34°C° 0 mm 2 mps 666 mmHg 32%
    13:00 +35°C° 0 mm 2 mps 666 mmHg 30%
    14:00 +34°C° 0.1 mm 2 mps 666 mmHg 34%
    15:00 +32°C° 0.1 mm 2 mps 665 mmHg 37%
    16:00 +31°C° 0.1 mm 2 mps 665 mmHg 40%
    17:00 +29°C° 2.2 mm 3 mps 665 mmHg 52%
    18:00 +27°C° 2.2 mm 3 mps 665 mmHg 64%
    19:00 +23°C° 2.2 mm 4 mps 665 mmHg 75%
    20:00 +24°C° 0.2 mm 3 mps 665 mmHg 75%
    21:00 +24°C° 0.2 mm 3 mps 665 mmHg 74%
    22:00 +24°C° 0.2 mm 2 mps 666 mmHg 74%
    23:00 +24°C° 0 mm 2 mps 666 mmHg 73%
    Show more